DateTimeUTC,F1_A11,F1_S11,BsB_S11,BsG_S11,BsR_S11,BbsB_S11,BbsG_S11,BbsR_S11,BaB_A11,BaG_A11,BaR_A11,Tu_S11,T_S11,Uu_S11,U_S11,P_S11,T1_A11
2021-07-14T01:00:00Z,00000200,20000000,,,,,,,0000.01,0000.18,-000.07,19.3,26.1,10.6,07.0,0665.5,31.1
2021-07-14T01:01:00Z,00000200,20000000,,,,,,,-000.42,0000.09,-000.03,19.3,26.1,10.6,07.0,0665.5,31.1
2021-07-14T01:02:00Z,00000200,20000000,,,,,,,0000.12,-000.50,0000.09,19.3,26.1,10.6,07.0,0665.5,31.1
2021-07-14T01:03:00Z,00000200,60000000,,,,,,,-000.15,-000.17,-000.57,19.3,26.1,10.6,07.0,0665.5,31.1
2021-07-14T01:04:00Z,00000200,40000000,0001.50,0001.13,0000.44,0000.00,0000.46,0000.11,-000.25,0000.21,0000.03,19.4,25.9,09.7,06.5,0666.4,31.1
2021-07-14T01:05:00Z,00000200,00000000,0001.10,0000.58,0000.10,-000.06,0000.19,-000.03,0000.24,0000.01,0000.12,19.4,25.8,09.5,06.4,0666.5,31.1
2021-07-14T01:06:00Z,00000200,00000000,0000.94,0000.59,0000.32,0000.11,0000.11,0000.18,0000.37,0000.31,0000.58,19.4,25.8,09.8,06.7,0666.4,31.1
2021-07-14T01:07:00Z,00000200,00000000,0000.44,0000.75,0000.37,0000.24,0000.22,0000.10,0000.35,0000.18,0000.02,19.4,25.8,10.2,06.9,0666.4,31.1
2021-07-14T01:08:00Z,00000200,00000000,0000.92,0000.51,0000.00,-000.16,0000.30,0000.14,0000.34,0000.10,0000.08,19.4,25.8,10.1,06.9,0666.4,31.1
2021-07-14T01:09:00Z,00000200,00000000,0000.53,0000.60,0000.09,0000.55,0000.34,0000.03,0000.16,0000.52,0000.12,19.4,25.8,10.1,06.9,0666.4,31.1
2021-07-14T01:10:00Z,00000200,00000000,0001.57,0000.98,0000.35,0000.31,0000.04,0000.37,0000.29,0000.11,-000.03,19.4,25.8,10.2,06.9,0666.4,31.1
2021-07-14T01:11:00Z,00000200,00000000,0000.46,0000.70,0000.51,-000.67,0000.27,-000.06,-000.03,0000.24,0000.41,19.4,25.8,10.2,06.9,0666.4,31.1
2021-07-14T01:12:00Z,00000200,00000000,0000.92,0000.70,0000.16,0000.56,-000.03,-000.02,0000.21,0000.28,0000.27,19.4,25.8,10.3,07.0,0666.4,31.1
2021-07-14T01:13:00Z,00000200,00000000,0000.86,0000.68,0000.25,0000.30,0000.10,-000.00,0000.48,0000.05,-000.07,19.4,25.8,10.4,07.0,0666.4,31.1
2021-07-14T01:14:00Z,00000200,00000000,0000.99,0000.63,0000.30,-000.06,0000.08,-000.11,0000.33,0000.24,0000.39,19.4,25.8,10.4,07.1,0666.4,31.1
2021-07-14T01:15:00Z,00000200,00000000,0000.66,0000.64,0000.30,0000.07,0000.40,0000.13,0000.16,0000.17,0000.03,19.4,25.8,10.5,07.1,0666.3,31.1
2021-07-14T01:16:00Z,00000200,00000000,0000.87,0000.21,0000.24,-000.34,0000.27,0000.35,-000.53,0000.04,0000.10,19.4,25.7,10.4,07.1,0666.3,31.1
2021-07-14T01:17:00Z,00000200,00000000,0001.43,0000.89,0000.10,0000.26,0000.27,-000.34,0000.38,-000.05,-000.09,19.4,25.8,10.2,06.9,0666.3,31.1
2021-07-14T01:18:00Z,00000200,00000000,0001.34,0000.55,0000.79,0000.27,0000.16,-000.05,-000.33,-000.42,-000.14,19.4,25.7,09.9,06.7,0666.3,31.1
2021-07-14T01:19:00Z,00000200,00000000,0001.66,0000.98,0000.46,-000.27,0000.20,0000.17,-000.34,-000.33,-000.28,19.4,25.7,09.6,06.5,0666.3,31.1
2021-07-14T01:20:00Z,00000200,00000000,0001.45,0000.59,0000.53,0000.12,0000.15,0000.12,0000.19,0000.26,0000.02,19.4,25.7,08.9,06.1,0666.3,31.1
2021-07-14T01:21:00Z,00000200,00000000,0000.39,0000.72,0000.64,0000.41,0000.35,-000.31,0000.42,0000.37,0000.29,19.4,25.7,09.1,06.2,0666.3,31.1
2021-07-14T01:22:00Z,00000200,00000000,0000.62,0000.73,0000.34,-000.54,0000.19,0000.10,0000.40,0000.42,0000.41,19.4,25.7,09.4,06.4,0666.3,31.1
2021-07-14T01:23:00Z,00000200,00000000,0001.44,0000.52,0000.45,0000.21,0000.02,0000.28,0000.26,0000.10,-000.33,19.4,25.7,09.6,06.5,0666.3,31.1
2021-07-14T01:24:00Z,00000200,00000000,0001.10,0000.71,0000.35,0000.31,0000.05,0000.06,-000.03,0000.25,0000.74,19.3,25.7,09.6,06.6,0666.3,31.1
2021-07-14T01:25:00Z,00000200,00000000,0001.51,0000.83,0000.20,-000.22,0000.22,-000.25,0000.59,0000.51,-000.04,19.3,25.7,09.8,06.6,0666.3,31.1
2021-07-14T01:26:00Z,00000200,00000000,0001.28,0001.14,-000.04,-000.24,0000.03,-000.32,0000.07,-000.17,0000.25,19.3,25.7,09.9,06.7,0666.3,31.1
2021-07-14T01:27:00Z,00000200,00000000,0001.53,0000.45,0000.50,-000.22,0000.40,0000.04,0000.37,0000.37,-000.13,19.3,25.7,09.8,06.7,0666.3,31.1
2021-07-14T01:28:00Z,00000200,00000000,0001.46,0000.82,0000.26,-000.05,0000.39,-000.22,-000.14,0000.02,0000.12,19.3,25.7,09.7,06.6,0666.3,31.1
2021-07-14T01:29:00Z,00000200,00000000,0001.24,0001.16,0000.43,-000.09,0000.19,0000.03,0000.08,0000.26,0000.25,19.3,25.7,09.7,06.6,0666.3,31.1
2021-07-14T01:30:00Z,00000200,00000000,0001.00,0000.86,0000.49,-000.13,-000.07,0000.35,0000.43,0000.23,0000.32,19.3,25.7,09.7,06.6,0666.3,31.1
2021-07-14T01:31:00Z,00000200,00000000,0001.07,0000.80,0000.31,-000.26,0000.30,0000.15,0000.58,0000.16,0000.24,19.3,25.7,09.9,06.7,0666.3,31.1
2021-07-14T01:32:00Z,00000200,00000000,0000.93,0000.80,0000.35,-000.19,0000.05,0000.16,0000.32,0000.38,0000.26,19.3,25.6,10.1,06.8,0666.2,31.1
2021-07-14T01:33:00Z,00000200,00000000,0000.92,0001.08,0000.45,-000.19,0000.06,0000.00,0000.18,0000.31,0000.16,19.3,25.6,10.1,06.8,0666.2,31.1
2021-07-14T01:34:00Z,00000200,00000000,0001.34,0000.77,0000.20,0000.17,-000.04,0000.00,-000.16,-000.11,-000.17,19.3,25.6,10.0,06.8,0666.2,31.1
2021-07-14T01:35:00Z,00000200,00000000,0000.93,0001.00,0000.32,0000.62,0000.17,-000.08,0000.33,0000.43,0000.31,19.3,25.6,09.9,06.7,0666.2,31.1
2021-07-14T01:36:00Z,00000200,00000000,0001.38,0000.82,0000.56,0000.31,0000.42,-000.02,-000.30,-000.14,0000.08,19.3,25.6,09.7,06.6,0666.2,31.1
2021-07-14T01:37:00Z,00000200,00000000,0000.72,0000.44,0000.40,0000.19,0000.09,-000.08,0000.05,0000.00,0000.11,19.3,25.6,09.6,06.5,0666.3,31.1
2021-07-14T01:38:00Z,00000200,00000000,0001.46,0000.82,0000.52,0000.04,0000.05,-000.04,0000.39,-000.17,-000.33,19.3,25.6,09.5,06.5,0666.2,31.1
2021-07-14T01:39:00Z,00000200,00000000,0001.45,0001.18,0000.44,-000.15,0000.24,0000.11,-000.07,0000.63,0000.33,19.3,25.6,09.3,06.3,0666.2,31.1
2021-07-14T01:40:00Z,00000200,00000000,0001.45,0000.94,0000.45,0000.12,0000.23,-000.20,0000.44,-000.09,-000.01,19.2,25.6,09.4,06.4,0666.2,31.1
2021-07-14T01:41:00Z,00000200,00000000,0001.20,0000.86,0000.29,0000.09,0000.11,0000.05,-000.06,0000.13,0000.34,19.2,25.6,09.3,06.3,0666.2,31.1
2021-07-14T01:42:00Z,00000200,00000000,0001.43,0001.11,0000.06,0000.04,-000.27,-000.21,0000.35,0000.36,-000.08,19.2,25.6,09.2,06.3,0666.2,31.1
2021-07-14T01:43:00Z,00000200,00000000,0001.43,0000.79,0000.40,0000.12,0000.14,0000.26,0000.04,-000.11,0000.16,19.2,25.5,09.1,06.2,0666.2,31.1
2021-07-14T01:44:00Z,00000200,00000000,0001.15,0000.77,0000.87,-000.12,0000.27,0000.14,-000.12,0000.10,-000.08,19.2,25.5,09.1,06.2,0666.2,31.1
2021-07-14T01:45:00Z,00000200,00000000,0001.49,0000.89,0000.06,0000.01,0000.23,-000.38,0000.78,0000.35,0000.39,19.2,25.5,09.1,06.2,0666.2,31.1
2021-07-14T01:46:00Z,00000200,00000000,0000.62,0000.81,0000.49,-000.69,0000.36,-000.06,-000.07,-000.01,-000.22,19.2,25.5,09.1,06.2,0666.2,31.1
2021-07-14T01:47:00Z,00000200,00000000,0001.21,0000.99,0000.28,-000.07,0000.30,-000.09,0000.33,0000.20,0000.12,19.2,25.5,08.9,06.1,0666.2,31.1
2021-07-14T01:48:00Z,00000200,00000000,0000.84,0000.98,0000.45,-000.20,-000.02,0000.19,-000.15,0000.27,0000.21,19.2,25.5,09.0,06.1,0666.2,31.1
2021-07-14T01:49:00Z,00000200,00000000,0001.05,0000.88,0000.31,0000.39,0000.28,-000.20,0000.25,0000.19,0000.35,19.2,25.5,08.9,06.1,0666.2,31.1
2021-07-14T01:50:00Z,00000200,00000000,0000.72,0001.05,0000.22,0000.11,0000.22,-000.01,0000.17,0000.01,-000.37,19.2,25.5,08.7,05.9,0666.2,31.1
2021-07-14T01:51:00Z,00000200,00000000,0000.95,0001.19,0000.23,0000.16,0000.25,-000.08,0000.33,0000.07,0000.30,19.1,25.5,08.8,06.0,0666.2,31.1
2021-07-14T01:52:00Z,00000200,00000000,0000.72,0001.41,0000.05,-000.19,0000.07,0000.33,0000.00,0000.20,0000.17,19.2,25.5,08.7,05.9,0666.2,31.1
2021-07-14T01:53:00Z,00000200,00000000,0000.99,0000.77,0000.28,-000.44,0000.42,0000.08,0000.02,0000.27,0000.13,19.1,25.5,08.8,06.0,0666.2,31.1
2021-07-14T01:54:00Z,00000200,00000000,0001.24,0000.58,0000.30,0000.50,0000.42,0000.00,0000.56,0000.08,0000.26,19.1,25.5,08.8,06.0,0666.2,31.1
2021-07-14T01:55:00Z,00000200,00000000,0001.50,0001.03,0000.64,-000.26,0000.15,0000.07,0000.02,0000.15,0000.24,19.1,25.5,09.0,06.1,0666.2,31.1
2021-07-14T01:56:00Z,00000200,00000000,0001.17,0000.69,0000.05,-000.18,0000.28,-000.07,0000.05,0000.12,0000.04,19.1,25.5,08.7,05.9,0666.2,31.1
2021-07-14T01:57:00Z,00000200,40000000,,,,,,,0000.30,-000.01,0000.00,19.2,25.5,07.9,05.4,0666.2,31.1
2021-07-14T01:58:00Z,00000200,60000000,,,,,,,-000.01,-000.03,-000.16,18.9,25.6,09.2,06.1,0665.3,31.1
2021-07-14T01:59:00Z,00000200,20000000,,,,,,,-000.33,0000.18,0000.14,18.9,25.7,08.9,05.9,0665.2,31.1
